Weather History for Bloomington, IL

Change the Weather History Date:

Wednesday, February 27, 2013

  Actual Average Record
Temperature  
Mean Temperature 31 °F -  
Max Temperature 32 °F 40 °F 55 °F (1999)
Min Temperature 30 °F 12 °F 3 °F (2014)
Degree Days  
Heating Degree Days 34    
Moisture  
Dew Point 30 °F    
Average Humidity 95    
Maximum Humidity 100    
Minimum Humidity 85    
Precipitation  
Precipitation 0.05 in - - ()
Sea Level Pressure  
Sea Level Pressure 29.65 in    
Wind  
Wind Speed 6 mph (WNW)    
Max Wind Speed 9 mph    
Max Gust Speed -    
Visibility 3 miles    
Events Snow    
Averages and records for this station are not official NWS values.
T = Trace of Precipitation, MM = Missing Value Source: NWS Daily Summary

Daily Weather History Graph

Daily Weather History Graph

Search for Another Location

Airport:

Trip Planner

Search our weather history database for the weather conditions in past years. The results will help you decide how hot, cold, wet, or windy it might be!

Date:

Astronomy

Feb. 27, 2013 Rise Set
Actual Time 6:32 AM CST 5:45 PM CST
Civil Twilight 6:04 AM CST 6:12 PM CST
Nautical Twilight 5:33 AM CST 6:44 PM CST
Astronomical Twilight 5:01 AM CST 7:15 PM CST
Moon 8:07 PM CST (2/27) 7:06 AM CST (2/27)
Length of Visible Light 12h 08m
Length of Day
11h 13m
Waning Gibbous, 96% of the Moon is Illuminated
Feb 27
Waning Gibbous
Mar 4
Last Quarter
Mar 11
New
Mar 19
First Quarter
Mar 27
Full

Hourly Weather History & Observations

Time (CST) Temp. Windchill Dew Point Humidity Pressure Visibility Wind Dir Wind Speed Gust Speed Precip Events Conditions
12:11 AM 32.0 °F 26.4 °F 32.0 °F 100% 29.53 in 1.2 mi NNW 5.8 mph - N/A   Overcast
12:36 AM 32.0 °F 26.4 °F 32.0 °F 100% 29.54 in 2.0 mi NNW 5.8 mph - 0.00 in   Overcast
12:56 AM 32.0 °F 26.4 °F 32.0 °F 100% 29.59 in 2.5 mi NW 5.8 mph - 0.00 in   Overcast
1:17 AM 32.0 °F 26.4 °F 32.0 °F 100% 29.55 in 3.0 mi NW 5.8 mph - 0.00 in   Overcast
1:56 AM 32.0 °F 27.5 °F 32.0 °F 100% 29.60 in 4.0 mi NW 4.6 mph - 0.01 in   Overcast
2:56 AM 32.0 °F 26.4 °F 32.0 °F 100% 29.61 in 3.0 mi NW 5.8 mph - 0.00 in   Overcast
3:13 AM 32.0 °F 27.5 °F 32.0 °F 100% 29.57 in 2.5 mi WNW 4.6 mph - 0.00 in   Overcast
3:45 AM 32.0 °F 26.4 °F 32.0 °F 100% 29.56 in 3.0 mi NW 5.8 mph - 0.00 in   Overcast
3:56 AM 32.0 °F 25.6 °F 32.0 °F 100% 29.61 in 3.0 mi NW 6.9 mph - 0.00 in   Overcast
4:19 AM 32.0 °F 26.4 °F 32.0 °F 100% 29.57 in 4.0 mi NW 5.8 mph - 0.00 in   Overcast
5:08 AM 32.0 °F 25.6 °F 30.2 °F 93% 29.58 in 2.5 mi NW 6.9 mph - 0.00 in   Overcast
5:15 AM 32.0 °F 25.6 °F 30.2 °F 93% 29.57 in 3.0 mi NW 6.9 mph - 0.00 in   Overcast
5:22 AM 32.0 °F 25.6 °F 30.2 °F 93% 29.58 in 2.5 mi NW 6.9 mph - 0.00 in   Overcast
5:30 AM 32.0 °F 25.6 °F 30.2 °F 93% 29.58 in 3.0 mi NW 6.9 mph - 0.00 in   Overcast
5:56 AM 31.1 °F 24.5 °F 31.1 °F 100% 29.63 in 5.0 mi NW 6.9 mph - 0.00 in Snow Light Snow
6:45 AM 30.2 °F 24.3 °F 30.2 °F 100% 29.61 in 3.0 mi NW 5.8 mph - 0.00 in Snow Light Snow
6:56 AM 31.1 °F 24.5 °F 30.0 °F 96% 29.66 in 3.0 mi WNW 6.9 mph - 0.00 in Snow Light Snow
6:59 AM 30.2 °F 24.3 °F 30.2 °F 100% 29.61 in 1.5 mi NW 5.8 mph - 0.00 in Snow Light Snow
7:56 AM 30.0 °F 24.1 °F 29.1 °F 96% 29.68 in 1.2 mi WNW 5.8 mph - 0.00 in Snow Light Snow
8:26 AM 30.2 °F 24.3 °F 28.4 °F 93% 29.63 in 1.2 mi WNW 5.8 mph - 0.00 in Snow Light Snow
8:56 AM 30.0 °F 23.2 °F 29.1 °F 96% 29.68 in 1.2 mi WNW 6.9 mph - 0.00 in Snow Light Snow
9:56 AM 30.0 °F 23.2 °F 29.1 °F 96% 29.69 in 1.2 mi West 6.9 mph - 0.00 in Snow Light Snow
10:56 AM 31.1 °F 23.7 °F 29.1 °F 92% 29.69 in 1.8 mi West 8.1 mph - 0.01 in Snow Light Snow
11:56 AM 32.0 °F 25.6 °F 28.0 °F 85% 29.69 in 1.8 mi West 6.9 mph - 0.01 in Snow Light Snow
12:01 PM 30.2 °F 23.4 °F 28.4 °F 93% 29.64 in 2.5 mi WNW 6.9 mph - 0.00 in Snow Light Snow
12:56 PM 32.0 °F 24.8 °F 28.0 °F 85% 29.69 in 2.0 mi WNW 8.1 mph - 0.01 in Snow Light Snow
1:56 PM 32.0 °F 24.8 °F 28.0 °F 85% 29.70 in 4.0 mi West 8.1 mph - 0.00 in Snow Light Snow
2:56 PM 32.0 °F 24.8 °F 28.0 °F 85% 29.72 in 6.0 mi WNW 8.1 mph - 0.00 in Snow Light Snow
3:56 PM 31.1 °F 23.1 °F 29.1 °F 92% 29.74 in 4.0 mi WNW 9.2 mph - 0.01 in Snow Light Snow
4:56 PM 31.1 °F 23.7 °F 29.1 °F 92% 29.75 in 6.0 mi WNW 8.1 mph - 0.00 in Snow Light Snow
4:58 PM 30.2 °F 21.9 °F 28.4 °F 93% 29.70 in 6.0 mi WNW 9.2 mph - 0.00 in Snow Light Snow
5:56 PM 31.1 °F 23.1 °F 29.1 °F 92% 29.77 in 7.0 mi West 9.2 mph - 0.00 in   Overcast
6:56 PM 31.1 °F 23.7 °F 30.0 °F 96% 29.79 in 4.0 mi WNW 8.1 mph - 0.00 in Snow Light Snow
8:56 PM 31.1 °F 23.7 °F 30.0 °F 96% 29.80 in 5.0 mi WNW 8.1 mph - 0.00 in Snow Light Snow
10:56 PM 31.1 °F 24.5 °F 30.0 °F 96% 29.81 in 5.0 mi WNW 6.9 mph - 0.00 in Snow Light Snow